| time (UTC) | temp F | wind direction | speed knots | gust knots | rain 1hr in | rain 24hr in | rain mn in | humidity % | barometer mb |
| 20260507003054 | 44 | 0 | 0.0 | 0.9 | 0.00 | 0.00 | 0.00 | 85 | 1013.7 |
| 20260507003015 | 45 | 0.0 | 0.9 | 0.00 | 0.00 | 0.00 | 86 | 1013.8 | |
| 20260507002015 | 45 | 355 | 0.0 | 0.9 | 0.00 | 0.00 | 0.00 | 85 | 1013.8 |
| 20260507001612 | 44 | 0 | 0.0 | 1.7 | 0.00 | 0.00 | 0.00 | 85 | 1013.8 |
| 20260507001015 | 45 | 355 | 0.0 | 1.7 | 0.00 | 0.00 | 0.00 | 85 | 1013.8 |
| 20260507000100 | 45 | 0 | 0.0 | 0.0 | 0.00 | 0.00 | 0.00 | 85 | 1013.8 |
| 20260507000015 | 45 | 0.0 | 0.0 | 0.00 | 0.00 | 0.00 | 85 | 1013.8 | |
| 20260506235015 | 45 | 0.0 | 0.0 | 0.00 | 0.00 | 0.00 | 85 | 1013.9 | |
| 20260506234558 | 45 | 0 | 0.0 | 0.0 | 0.00 | 0.00 | 0.00 | 84 | 1013.8 |
| 20260506234015 | 46 | 0.0 | 0.0 | 0.00 | 0.00 | 0.00 | 84 | 1013.8 | |
| 20260506233446 | 45 | 0 | 0.0 | 0.0 | 0.00 | 0.00 | 0.00 | 84 | 1013.8 |
| 20260506231018 | 46 | 355 | 0.0 | 1.7 | 0.00 | 0.00 | 0.00 | 84 | 1013.8 |
| 20260506230058 | 46 | 0 | 0.0 | 2.6 | 0.00 | 0.00 | 0.00 | 83 | 1013.7 |
| 20260506230017 | 46 | 355 | 0.0 | 2.6 | 0.00 | 0.00 | 0.00 | 84 | 1013.7 |
| 20260506225017 | 47 | 355 | 0.0 | 1.7 | 0.00 | 0.00 | 0.00 | 84 | 1013.7 |
| 20260506224556 | 46 | 355 | 0.0 | 2.6 | 0.00 | 0.00 | 0.00 | 84 | 1013.7 |
| 20260506224018 | 47 | 355 | 0.0 | 2.6 | 0.00 | 0.00 | 0.00 | 84 | 1013.6 |
| 20260506223112 | 46 | 355 | 0.0 | 2.6 | 0.00 | 0.00 | 0.00 | 83 | 1013.6 |
| 20260506223017 | 47 | 355 | 0.0 | 2.6 | 0.00 | 0.00 | 0.00 | 84 | 1013.6 |
| 20260506222017 | 47 | 355 | 0.0 | 2.6 | 0.00 | 0.00 | 0.00 | 84 | 1013.6 |
| 20260506221556 | 47 | 0 | 0.9 | 2.6 | 0.00 | 0.00 | 0.00 | 83 | 1013.6 |
| 20260506221017 | 47 | 355 | 0.0 | 1.7 | 0.00 | 0.00 | 0.00 | 83 | 1013.6 |
| 20260506220037 | 48 | 355 | 0.0 | 3.5 | 0.00 | 0.00 | 0.00 | 83 | 1013.5 |
| 20260506215017 | 48 | 355 | 0.0 | 2.6 | 0.00 | 0.00 | 0.00 | 83 | 1013.4 |
| 20260506214550 | 48 | 355 | 0.0 | 2.6 | 0.00 | 0.00 | 0.00 | 82 | 1013.4 |
| 20260506214037 | 48 | 355 | 0.9 | 2.6 | 0.00 | 0.00 | 0.00 | 82 | 1013.4 |
| 20260506213047 | 48 | 0 | 0.0 | 3.5 | 0.00 | 0.00 | 0.00 | 81 | 1013.4 |
| 20260506213017 | 48 | 355 | 0.9 | 3.5 | 0.00 | 0.00 | 0.00 | 82 | 1013.4 |
| 20260506212037 | 49 | 355 | 1.7 | 5.2 | 0.00 | 0.00 | 0.00 | 82 | 1013.2 |
| 20260506211553 | 48 | 355 | 0.9 | 4.3 | 0.00 | 0.00 | 0.00 | 81 | 1013.2 |
| 20260506211017 | 49 | 350 | 1.7 | 3.5 | 0.00 | 0.00 | 0.00 | 81 | 1013.2 |
| 20260506210100 | 49 | 0 | 0.0 | 4.3 | 0.00 | 0.00 | 0.00 | 81 | 1013.1 |
| 20260506210017 | 49 | 350 | 0.9 | 3.5 | 0.00 | 0.00 | 0.00 | 81 | 1013.2 |
| 20260506205018 | 50 | 10 | 1.7 | 6.1 | 0.00 | 0.00 | 0.00 | 81 | 1013.1 |
| 20260506204555 | 49 | 17 | 1.7 | 7.8 | 0.00 | 0.00 | 0.00 | 80 | 1013.0 |
| 20260506204017 | 50 | 15 | 2.6 | 7.8 | 0.00 | 0.00 | 0.00 | 80 | 1013.1 |
| 20260506203138 | 50 | 13 | 1.7 | 6.1 | 0.00 | 0.00 | 0.00 | 79 | 1013.0 |
| 20260506203017 | 50 | 12 | 2.6 | 6.1 | 0.00 | 0.00 | 0.00 | 79 | 1013.0 |
| 20260506202017 | 50 | 1 | 2.6 | 5.2 | 0.00 | 0.00 | 0.00 | 78 | 1012.9 |
| 20260506201556 | 50 | 5 | 1.7 | 7.0 | 0.00 | 0.00 | 0.00 | 78 | 1012.9 |
| 20260506201017 | 50 | 20 | 2.6 | 7.0 | 0.00 | 0.00 | 0.00 | 77 | 1012.8 |
| 20260506200055 | 50 | 26 | 2.6 | 7.8 | 0.00 | 0.00 | 0.00 | 76 | 1012.7 |
| 20260506200017 | 51 | 15 | 2.6 | 7.8 | 0.00 | 0.00 | 0.00 | 76 | 1012.7 |
| 20260506195017 | 51 | 6 | 3.5 | 7.8 | 0.00 | 0.00 | 0.00 | 75 | 1012.6 |
| 20260506194558 | 51 | 19 | 2.6 | 7.8 | 0.00 | 0.00 | 0.00 | 74 | 1012.5 |
| 20260506194017 | 51 | 6 | 2.6 | 8.7 | 0.00 | 0.00 | 0.00 | 74 | 1012.5 |
| 20260506193051 | 51 | 11 | 2.6 | 6.1 | 0.00 | 0.00 | 0.00 | 72 | 1012.3 |
| 20260506193017 | 52 | 10 | 2.6 | 6.1 | 0.00 | 0.00 | 0.00 | 72 | 1012.4 |
| 20260506192017 | 52 | 7 | 2.6 | 8.7 | 0.00 | 0.00 | 0.00 | 71 | 1012.2 |
| 20260506191604 | 51 | 0 | 2.6 | 8.7 | 0.00 | 0.00 | 0.00 | 70 | 1012.1 |
| 20260506191017 | 52 | 6 | 3.5 | 9.6 | 0.00 | 0.00 | 0.00 | 70 | 1012.0 |
| 20260506190054 | 52 | 15 | 3.5 | 8.7 | 0.00 | 0.00 | 0.00 | 69 | 1011.8 |
| 20260506190037 | 53 | 12 | 4.3 | 8.7 | 0.00 | 0.00 | 0.00 | 69 | 1011.9 |
| 20260506185017 | 53 | 19 | 5.2 | 11.3 | 0.00 | 0.00 | 0.00 | 68 | 1011.7 |
| 20260506184601 | 53 | 5 | 4.3 | 13.9 | 0.00 | 0.00 | 0.00 | 68 | 1011.7 |
| 20260506184017 | 54 | 11 | 5.2 | 13.9 | 0.00 | 0.00 | 0.00 | 68 | 1011.6 |
| 20260506183111 | 54 | 336 | 3.5 | 10.4 | 0.00 | 0.00 | 0.00 | 67 | 1011.5 |
| 20260506183017 | 54 | 4 | 4.3 | 10.4 | 0.00 | 0.00 | 0.00 | 67 | 1011.5 |
| 20260506182017 | 55 | 357 | 4.3 | 12.2 | 0.00 | 0.00 | 0.00 | 65 | 1011.5 |
| 20260506181545 | 55 | 329 | 5.2 | 12.2 | 0.00 | 0.00 | 0.00 | 64 | 1011.4 |
| 20260506181017 | 56 | 14 | 5.2 | 11.3 | 0.00 | 0.00 | 0.00 | 60 | 1011.4 |
| 20260506180046 | 55 | 355 | 5.2 | 11.3 | 0.00 | 0.00 | 0.00 | 59 | 1011.2 |
| 20260506180017 | 56 | 14 | 6.1 | 11.3 | 0.00 | 0.00 | 0.00 | 60 | 1011.2 |
| 20260506175017 | 56 | 6 | 4.3 | 14.8 | 0.00 | 0.00 | 0.00 | 59 | 1011.1 |
| 20260506174606 | 56 | 360 | 6.1 | 14.8 | 0.00 | 0.00 | 0.00 | 58 | 1011.1 |
| 20260506174017 | 56 | 14 | 5.2 | 12.2 | 0.00 | 0.00 | 0.00 | 60 | 1011.0 |
| 20260506173056 | 56 | 25 | 5.2 | 10.4 | 0.00 | 0.00 | 0.00 | 59 | 1010.9 |
| 20260506173037 | 56 | 3 | 5.2 | 10.4 | 0.00 | 0.00 | 0.00 | 59 | 1010.9 |
| 20260506172017 | 56 | 16 | 5.2 | 13.0 | 0.00 | 0.00 | 0.00 | 60 | 1010.9 |
| 20260506171547 | 55 | 11 | 6.1 | 12.2 | 0.00 | 0.00 | 0.00 | 59 | 1010.8 |
| 20260506171017 | 56 | 18 | 3.5 | 11.3 | 0.00 | 0.00 | 0.00 | 60 | 1010.8 |
| 20260506170051 | 55 | 15 | 4.3 | 11.3 | 0.00 | 0.00 | 0.00 | 60 | 1010.7 |
| 20260506170037 | 56 | 7 | 5.2 | 11.3 | 0.00 | 0.00 | 0.00 | 61 | 1010.7 |
| 20260506165037 | 56 | 13 | 5.2 | 13.0 | 0.00 | 0.00 | 0.00 | 60 | 1010.7 |
| 20260506164557 | 55 | 10 | 6.1 | 14.8 | 0.00 | 0.00 | 0.00 | 60 | 1010.6 |
| 20260506164037 | 57 | 13 | 7.0 | 14.8 | 0.00 | 0.00 | 0.00 | 61 | 1010.7 |
| 20260506163104 | 57 | 30 | 6.1 | 15.6 | 0.00 | 0.00 | 0.00 | 61 | 1010.6 |
| 20260506163017 | 57 | 2 | 6.1 | 15.6 | 0.00 | 0.00 | 0.00 | 61 | 1010.6 |
| 20260506162037 | 58 | 14 | 5.2 | 12.2 | 0.00 | 0.00 | 0.00 | 62 | 1010.6 |
| 20260506161550 | 57 | 86 | 5.2 | 13.0 | 0.00 | 0.00 | 0.00 | 62 | 1010.5 |
| 20260506161017 | 57 | 12 | 5.2 | 13.0 | 0.00 | 0.00 | 0.00 | 62 | 1010.5 |
| 20260506160053 | 57 | 28 | 7.0 | 13.9 | 0.00 | 0.00 | 0.00 | 61 | 1010.6 |
| 20260506160017 | 57 | 18 | 7.0 | 13.9 | 0.00 | 0.00 | 0.00 | 62 | 1010.6 |
| 20260506155017 | 58 | 10 | 5.2 | 12.2 | 0.00 | 0.00 | 0.00 | 63 | 1010.6 |
| 20260506154555 | 57 | 30 | 6.1 | 14.8 | 0.00 | 0.00 | 0.00 | 62 | 1010.5 |
| 20260506154037 | 58 | 15 | 7.0 | 14.8 | 0.00 | 0.00 | 0.00 | 62 | 1010.5 |
| 20260506153057 | 57 | 33 | 5.2 | 13.9 | 0.00 | 0.00 | 0.00 | 61 | 1010.4 |
| 20260506153017 | 58 | 3 | 6.1 | 13.9 | 0.00 | 0.00 | 0.00 | 61 | 1010.5 |
| 20260506152017 | 58 | 12 | 6.1 | 13.9 | 0.00 | 0.00 | 0.00 | 62 | 1010.4 |
| 20260506151556 | 58 | 40 | 5.2 | 14.8 | 0.00 | 0.00 | 0.00 | 63 | 1010.4 |
| 20260506151017 | 58 | 12 | 7.0 | 14.8 | 0.00 | 0.00 | 0.00 | 62 | 1010.4 |
| 20260506150054 | 58 | 48 | 6.1 | 13.0 | 0.00 | 0.00 | 0.00 | 63 | 1010.4 |
| 20260506150037 | 58 | 9 | 5.2 | 12.2 | 0.00 | 0.00 | 0.00 | 63 | 1010.4 |
| 20260506145017 | 58 | 6 | 6.1 | 16.5 | 0.00 | 0.00 | 0.00 | 63 | 1010.4 |
| 20260506144554 | 57 | 346 | 6.1 | 12.2 | 0.00 | 0.00 | 0.00 | 62 | 1010.3 |
| 20260506144017 | 58 | 8 | 7.0 | 13.0 | 0.00 | 0.00 | 0.00 | 61 | 1010.4 |
| 20260506143050 | 58 | 15 | 4.3 | 14.8 | 0.00 | 0.00 | 0.00 | 61 | 1010.3 |
| 20260506143017 | 58 | 27 | 6.1 | 14.8 | 0.00 | 0.00 | 0.00 | 62 | 1010.3 |
| 20260506142017 | 58 | 13 | 7.8 | 13.0 | 0.00 | 0.00 | 0.00 | 62 | 1010.3 |
| 20260506141549 | 58 | 360 | 4.3 | 13.0 | 0.00 | 0.00 | 0.00 | 62 | 1010.2 |
| 20260506141017 | 58 | 7 | 5.2 | 12.2 | 0.00 | 0.00 | 0.00 | 61 | 1010.3 |
| 20260506140047 | 57 | 33 | 5.2 | 13.9 | 0.00 | 0.00 | 0.00 | 62 | 1010.2 |
| 20260506140017 | 57 | 11 | 5.2 | 13.0 | 0.00 | 0.00 | 0.00 | 62 | 1010.3 |
| 20260506135017 | 57 | 17 | 6.1 | 13.9 | 0.00 | 0.00 | 0.00 | 62 | 1010.3 |
| 20260506134552 | 57 | 15 | 6.1 | 13.0 | 0.00 | 0.00 | 0.00 | 62 | 1010.2 |
| 20260506134017 | 57 | 14 | 7.8 | 13.0 | 0.00 | 0.00 | 0.00 | 61 | 1010.3 |
| 20260506133047 | 58 | 324 | 6.1 | 14.8 | 0.00 | 0.00 | 0.00 | 60 | 1010.2 |
| 20260506133017 | 58 | 12 | 7.0 | 14.8 | 0.00 | 0.00 | 0.00 | 60 | 1010.2 |
| 20260506132017 | 58 | 9 | 5.2 | 13.9 | 0.00 | 0.00 | 0.00 | 61 | 1010.1 |
| 20260506131543 | 57 | 19 | 7.0 | 13.9 | 0.00 | 0.00 | 0.00 | 60 | 1010.1 |
| 20260506131017 | 58 | 8 | 6.1 | 13.9 | 0.00 | 0.00 | 0.00 | 65 | 1010.1 |
| 20260506130054 | 57 | 5 | 4.3 | 13.9 | 0.00 | 0.00 | 0.00 | 65 | 1010.0 |
| 20260506130017 | 57 | 10 | 5.2 | 13.9 | 0.00 | 0.00 | 0.00 | 65 | 1010.1 |
| 20260506125017 | 58 | 3 | 5.2 | 13.0 | 0.00 | 0.00 | 0.00 | 66 | 1010.1 |
| 20260506124555 | 57 | 257 | 5.2 | 13.0 | 0.00 | 0.00 | 0.00 | 65 | 1010.0 |
| 20260506124016 | 58 | 358 | 6.1 | 11.3 | 0.00 | 0.00 | 0.00 | 65 | 1010.1 |
| 20260506123057 | 57 | 20 | 5.2 | 10.4 | 0.00 | 0.00 | 0.00 | 66 | 1010.0 |
| 20260506123050 | 57 | 15 | 4.3 | 11.3 | 0.00 | 0.00 | 0.00 | 64 | 1010.0 |
| 20260506122017 | 57 | 14 | 4.3 | 8.7 | 0.00 | 0.00 | 0.00 | 64 | 1010.0 |
| 20260506121554 | 56 | 24 | 4.3 | 12.2 | 0.00 | 0.00 | 0.00 | 64 | 1010.0 |
| 20260506121037 | 56 | 9 | 5.2 | 12.2 | 0.00 | 0.00 | 0.00 | 65 | 1010.0 |
| 20260506120058 | 56 | 327 | 4.3 | 13.0 | 0.00 | 0.00 | 0.00 | 66 | 1009.8 |
| 20260506120015 | 57 | 8 | 5.2 | 13.0 | 0.00 | 0.00 | 0.00 | 66 | 1009.9 |
| 20260506115017 | 56 | 9 | 5.2 | 13.9 | 0.00 | 0.00 | 0.00 | 66 | 1009.9 |
| 20260506114554 | 56 | 16 | 6.1 | 13.9 | 0.00 | 0.00 | 0.00 | 65 | 1009.9 |
| 20260506114016 | 56 | 6 | 4.3 | 12.2 | 0.00 | 0.00 | 0.00 | 66 | 1010.0 |
| 20260506113053 | 56 | 28 | 2.6 | 10.4 | 0.00 | 0.00 | 0.00 | 66 | 1010.0 |
| 20260506113035 | 57 | 12 | 4.3 | 10.4 | 0.00 | 0.00 | 0.00 | 65 | 1010.0 |
| 20260506112036 | 57 | 19 | 4.3 | 10.4 | 0.00 | 0.00 | 0.00 | 64 | 1009.9 |
| 20260506111553 | 56 | 42 | 3.5 | 10.4 | 0.00 | 0.00 | 0.00 | 64 | 1009.8 |
| 20260506111016 | 57 | 9 | 5.2 | 11.3 | 0.00 | 0.00 | 0.00 | 63 | 1009.9 |
| 20260506110015 | 57 | 11 | 5.2 | 9.6 | 0.00 | 0.00 | 0.00 | 63 | 1009.9 |
| 20260506105036 | 57 | 46 | 4.3 | 11.3 | 0.00 | 0.00 | 0.00 | 63 | 1009.9 |
| 20260506104606 | 56 | 61 | 5.2 | 13.9 | 0.00 | 0.00 | 0.00 | 63 | 1009.9 |
| 20260506104017 | 56 | 15 | 6.1 | 13.9 | 0.00 | 0.00 | 0.00 | 66 | 1009.9 |
| 20260506103103 | 56 | 26 | 4.3 | 12.2 | 0.00 | 0.00 | 0.00 | 66 | 1009.7 |
| 20260506103016 | 56 | 7 | 4.3 | 12.2 | 0.00 | 0.00 | 0.00 | 67 | 1009.9 |
| 20260506101613 | 55 | 360 | 4.3 | 13.9 | 0.00 | 0.00 | 0.00 | 66 | 1009.7 |
| 20260506101517 | 56 | 18 | 6.1 | 13.0 | 0.00 | 0.00 | 0.00 | 67 | 1009.9 |
| 20260506101041 | 56 | 19 | 5.2 | 13.9 | 0.00 | 0.00 | 0.00 | 67 | 1009.9 |
| 20260506100051 | 55 | 18 | 3.5 | 10.4 | 0.00 | 0.00 | 0.00 | 69 | 1009.7 |
| 20260506100017 | 55 | 6 | 4.3 | 10.4 | 0.00 | 0.00 | 0.00 | 71 | 1009.8 |
| 20260506095016 | 55 | 16 | 5.2 | 13.9 | 0.00 | 0.00 | 0.00 | 72 | 1009.8 |
| 20260506094600 | 55 | 31 | 1.7 | 9.6 | 0.00 | 0.00 | 0.00 | 72 | 1009.7 |
| 20260506094017 | 54 | 20 | 2.6 | 12.2 | 0.00 | 0.00 | 0.00 | 72 | 1009.8 |
| 20260506093102 | 54 | 360 | 5.2 | 12.2 | 0.00 | 0.00 | 0.00 | 71 | 1009.8 |
| 20260506093015 | 54 | 18 | 5.2 | 12.2 | 0.00 | 0.00 | 0.00 | 72 | 1009.8 |
| 20260506092017 | 54 | 14 | 5.2 | 13.9 | 0.00 | 0.00 | 0.00 | 71 | 1009.8 |
| 20260506091551 | 54 | 12 | 4.3 | 9.6 | 0.00 | 0.00 | 0.00 | 71 | 1009.7 |
| 20260506091017 | 54 | 17 | 5.2 | 12.2 | 0.00 | 0.00 | 0.00 | 72 | 1009.6 |
| 20260506090109 | 54 | 11 | 4.3 | 13.0 | 0.00 | 0.00 | 0.00 | 71 | 1009.6 |
| 20260506090017 | 55 | 20 | 4.3 | 13.0 | 0.00 | 0.00 | 0.00 | 71 | 1009.6 |
| 20260506085016 | 55 | 10 | 7.0 | 14.8 | 0.00 | 0.00 | 0.00 | 70 | 1009.6 |
| 20260506084603 | 55 | 25 | 6.1 | 14.8 | 0.00 | 0.00 | 0.00 | 70 | 1009.5 |
| 20260506084016 | 55 | 12 | 4.3 | 9.6 | 0.00 | 0.00 | 0.00 | 73 | 1009.5 |
| 20260506083052 | 54 | 33 | 3.5 | 13.9 | 0.00 | 0.00 | 0.00 | 73 | 1009.5 |
| 20260506083016 | 54 | 20 | 3.5 | 13.9 | 0.00 | 0.00 | 0.00 | 74 | 1009.5 |
| 20260506082016 | 54 | 1 | 4.3 | 10.4 | 0.00 | 0.00 | 0.00 | 74 | 1009.5 |
| 20260506081605 | 54 | 344 | 4.3 | 10.4 | 0.00 | 0.00 | 0.00 | 74 | 1009.5 |
| 20260506081016 | 54 | 19 | 3.5 | 7.8 | 0.00 | 0.00 | 0.00 | 75 | 1009.5 |
| 20260506073054 | 54 | 28 | 2.6 | 8.7 | 0.00 | 0.00 | 0.00 | 77 | 1009.3 |
| 20260506073016 | 54 | 25 | 2.6 | 8.7 | 0.00 | 0.00 | 0.00 | 78 | 1009.3 |
| 20260506072036 | 53 | 13 | 3.5 | 7.8 | 0.00 | 0.00 | 0.00 | 79 | 1009.3 |
| 20260506071552 | 53 | 27 | 2.6 | 9.6 | 0.00 | 0.00 | 0.00 | 78 | 1009.3 |
| 20260506071015 | 53 | 23 | 4.3 | 9.6 | 0.00 | 0.00 | 0.00 | 78 | 1009.3 |
| 20260506062036 | 52 | 6 | 3.5 | 9.6 | 0.00 | 0.00 | 0.00 | 81 | 1009.1 |
| 20260506061552 | 52 | 24 | 0.9 | 12.2 | 0.00 | 0.00 | 0.00 | 81 | 1009.0 |
| 20260506061016 | 52 | 19 | 4.3 | 12.2 | 0.00 | 0.00 | 0.00 | 81 | 1009.0 |
| 20260506051036 | 51 | 16 | 3.5 | 9.6 | 0.00 | 0.00 | 0.00 | 82 | 1008.9 |
| 20260506050114 | 50 | 5 | 3.5 | 7.8 | 0.00 | 0.00 | 0.00 | 81 | 1009.0 |
| 20260506045036 | 51 | 1 | 2.6 | 7.8 | 0.00 | 0.00 | 0.00 | 81 | 1009.1 |
| 20260506044552 | 50 | 5 | 1.7 | 7.8 | 0.00 | 0.00 | 0.00 | 81 | 1009.0 |
| 20260506044016 | 51 | 356 | 2.6 | 6.1 | 0.00 | 0.00 | 0.00 | 81 | 1009.0 |
| 20260506043054 | 50 | 344 | 1.7 | 5.2 | 0.00 | 0.00 | 0.00 | 81 | 1009.1 |
| 20260506043016 | 50 | 18 | 2.6 | 5.2 | 0.00 | 0.00 | 0.00 | 81 | 1009.1 |
| 20260506042016 | 50 | 360 | 1.7 | 4.3 | 0.00 | 0.00 | 0.00 | 82 | 1009.0 |
| 20260506041604 | 50 | 355 | 1.7 | 7.8 | 0.00 | 0.00 | 0.00 | 81 | 1009.0 |
| 20260506041016 | 50 | 19 | 1.7 | 7.8 | 0.00 | 0.00 | 0.00 | 82 | 1009.1 |
| 20260506040052 | 50 | 5 | 1.7 | 7.0 | 0.00 | 0.00 | 0.00 | 82 | 1009.1 |
| 20260506040016 | 50 | 11 | 1.7 | 7.0 | 0.00 | 0.00 | 0.00 | 82 | 1009.1 |
| 20260506035016 | 50 | 8 | 3.5 | 7.8 | 0.00 | 0.00 | 0.00 | 83 | 1009.1 |
| 20260506034554 | 50 | 17 | 2.6 | 7.0 | 0.00 | 0.00 | 0.00 | 82 | 1009.1 |
| 20260506034016 | 50 | 357 | 3.5 | 7.0 | 0.00 | 0.00 | 0.00 | 82 | 1009.1 |
| 20260506033047 | 50 | 29 | 2.6 | 8.7 | 0.00 | 0.00 | 0.00 | 82 | 1009.1 |
| 20260506033016 | 50 | 4 | 2.6 | 7.8 | 0.00 | 0.00 | 0.00 | 82 | 1009.2 |
| 20260506032015 | 50 | 4 | 3.5 | 8.7 | 0.00 | 0.00 | 0.00 | 82 | 1009.2 |
| 20260506031548 | 50 | 13 | 1.7 | 7.0 | 0.00 | 0.00 | 0.00 | 82 | 1009.2 |
| 20260506031016 | 50 | 19 | 3.5 | 8.7 | 0.00 | 0.00 | 0.00 | 82 | 1009.3 |
| 20260506030057 | 50 | 17 | 1.7 | 7.0 | 0.00 | 0.00 | 0.00 | 82 | 1009.4 |
| 20260506030016 | 50 | 12 | 1.7 | 7.0 | 0.00 | 0.00 | 0.00 | 82 | 1009.4 |
| 20260506025035 | 50 | 3 | 1.7 | 7.0 | 0.00 | 0.00 | 0.00 | 82 | 1009.4 |
| 20260506024603 | 50 | 342 | 2.6 | 7.8 | 0.00 | 0.00 | 0.00 | 81 | 1009.4 |
| 20260506024016 | 50 | 7 | 3.5 | 7.8 | 0.00 | 0.00 | 0.00 | 82 | 1009.4 |
| 20260506023108 | 50 | 26 | 2.6 | 9.6 | 0.00 | 0.00 | 0.00 | 82 | 1009.4 |
| 20260506023016 | 50 | 4 | 2.6 | 9.6 | 0.00 | 0.00 | 0.00 | 82 | 1009.5 |
| 20260506022016 | 50 | 17 | 3.5 | 7.0 | 0.00 | 0.00 | 0.00 | 82 | 1009.5 |
| 20260506021548 | 50 | 23 | 2.6 | 6.1 | 0.00 | 0.00 | 0.00 | 82 | 1009.5 |
| 20260506021016 | 50 | 15 | 2.6 | 6.1 | 0.00 | 0.00 | 0.00 | 83 | 1009.6 |
| 20260506020055 | 49 | 15 | 1.7 | 7.8 | 0.00 | 0.00 | 0.00 | 82 | 1009.6 |
| 20260506020016 | 50 | 19 | 1.7 | 7.8 | 0.00 | 0.00 | 0.00 | 83 | 1009.6 |
| 20260506015016 | 50 | 19 | 0.9 | 4.3 | 0.00 | 0.00 | 0.00 | 82 | 1009.7 |
| 20260506014553 | 49 | 18 | 0.0 | 3.5 | 0.00 | 0.00 | 0.00 | 82 | 1009.7 |
| 20260506014016 | 49 | 19 | 0.9 | 6.1 | 0.00 | 0.00 | 0.00 | 83 | 1009.7 |
| 20260506013056 | 49 | 0 | 0.9 | 3.5 | 0.00 | 0.00 | 0.00 | 82 | 1009.7 |
| 20260506013015 | 49 | 22 | 0.9 | 2.6 | 0.00 | 0.00 | 0.00 | 83 | 1009.8 |
| 20260506012016 | 49 | 22 | 0.9 | 3.5 | 0.00 | 0.00 | 0.00 | 83 | 1009.8 |
| 20260506011550 | 48 | 0 | 0.0 | 4.3 | 0.00 | 0.00 | 0.00 | 82 | 1009.7 |
| 20260506011016 | 49 | 24 | 0.9 | 4.3 | 0.00 | 0.00 | 0.00 | 83 | 1009.8 |
| 20260506010050 | 48 | 24 | 0.9 | 3.5 | 0.00 | 0.00 | 0.00 | 82 | 1009.7 |
| 20260506010016 | 48 | 25 | 1.7 | 3.5 | 0.00 | 0.00 | 0.00 | 83 | 1009.8 |
| 20260506005016 | 48 | 25 | 0.9 | 2.6 | 0.00 | 0.00 | 0.00 | 82 | 1009.9 |
| 20260506004546 | 48 | 0 | 0.0 | 2.6 | 0.00 | 0.00 | 0.00 | 81 | 1009.9 |
| 20260506004016 | 48 | 25 | 0.0 | 2.6 | 0.00 | 0.00 | 0.00 | 82 | 1010.1 |